WA5LEE Weather Reports


Display with metric or nautical units.
time (UTC)temp
F
wind
direction
speed
MPH
gust
MPH
rain 1hr
in
rain 24hr
in
rain mn
in
humidity
%
barometer
mb
20210923181541 79 117 0.0 2.0 0.00 0.00 0.00 44 1016.7
20210923181001 79 262 0.0 2.0 0.00 0.00 0.00 42 1016.8
20210923180552 79 243 0.0 3.0 0.00 0.00 0.00 44 1016.7
20210923180320 80 109 1.0 3.0 0.00 0.00 0.00 42 1016.8
20210923180023 79 68 0.0 3.0 0.00 0.00 0.00 47 1016.8
20210923175115 79 70 1.0 4.0 0.00 0.00 0.00 45 1016.8
20210923174823 79 316 0.0 3.0 0.00 0.00 0.00 46 1016.8
20210923174536 78 323 0.0 3.0 0.00 0.00 0.00 48 1016.9
20210923174118 78 81 0.0 3.0 0.00 0.00 0.00 45 1016.9
20210923173558 78 237 0.0 3.0 0.00 0.00 0.00 45 1017.0
20210923173325 78 124 0.0 2.0 0.00 0.00 0.00 43 1017.1
20210923173013 78 111 1.0 2.0 0.00 0.00 0.00 42 1017.0
20210923172605 78 352 0.0 3.0 0.00 0.00 0.00 46 1017.2
20210923172109 78 105 1.0 3.0 0.00 0.00 0.00 43 1017.2
20210923171830 78 110 1.0 2.0 0.00 0.00 0.00 45 1017.3
20210923171659 77 105 0.0 2.0 0.00 0.00 0.00 43 1017.3
20210923171049 77 93 0.0 2.0 0.00 0.00 0.00 43 1017.3
20210923170541 77 136 0.0 4.0 0.00 0.00 0.00 43 1017.3
20210923170335 78 288 1.0 4.0 0.00 0.00 0.00 45 1017.4
20210923170101 77 56 0.0 4.0 0.00 0.00 0.00 47 1017.4
20210923165546 77 303 0.0 2.0 0.00 0.00 0.00 46 1017.5
20210923165016 76 61 0.0 4.0 0.00 0.00 0.00 47 1017.5
20210923164816 77 136 0.0 4.0 0.00 0.00 0.00 46 1017.6
20210923164616 76 227 1.0 4.0 0.00 0.00 0.00 48 1017.5
20210923164024 76 96 1.0 4.0 0.00 0.00 0.00 48 1017.7
20210923163513 77 60 0.0 2.0 0.00 0.00 0.00 47 1017.7
20210923163319 77 63 1.0 2.0 0.00 0.00 0.00 49 1017.8
20210923163035 76 46 0.0 2.0 0.00 0.00 0.00 50 1017.7
20210923162520 76 210 0.0 1.0 0.00 0.00 0.00 54 1017.7
20210923162011 76 4 0.0 2.0 0.00 0.00 0.00 48 1017.7
20210923161820 76 333 0.0 2.0 0.00 0.00 0.00 51 1017.8
20210923161554 76 246 1.0 2.0 0.00 0.00 0.00 50 1017.7
20210923161019 75 328 0.0 2.0 0.00 0.00 0.00 54 1017.8
20210923160508 75 106 0.0 2.0 0.00 0.00 0.00 54 1018.0
20210923160328 75 127 1.0 2.0 0.00 0.00 0.00 52 1018.0
20210923160040 75 127 0.0 1.0 0.00 0.00 0.00 54 1017.9
20210923155506 74 267 0.0 3.0 0.00 0.00 0.00 57 1017.9
20210923155115 74 266 0.0 3.0 0.00 0.00 0.00 56 1018.0
20210923154831 75 245 1.0 3.0 0.00 0.00 0.00 58 1018.0
20210923154501 74 84 0.0 2.0 0.00 0.00 0.00 56 1018.0
20210923154107 74 273 0.0 3.0 0.00 0.00 0.00 58 1017.9
20210923153542 73 72 0.0 4.0 0.00 0.00 0.00 61 1018.1
20210923153330 74 274 0.0 4.0 0.00 0.00 0.00 60 1018.0
20210923153116 73 96 1.0 4.0 0.00 0.00 0.00 61 1017.9
20210923152545 72 75 0.0 3.0 0.00 0.00 0.00 62 1017.8
20210923152038 72 52 0.0 3.0 0.00 0.00 0.00 65 1017.9
20210923151839 72 133 0.0 3.0 0.00 0.00 0.00 67 1017.9
20210923151616 71 89 0.0 3.0 0.00 0.00 0.00 64 1017.9
20210923151029 71 49 0.0 3.0 0.00 0.00 0.00 65 1018.0
20210923150531 70 240 0.0 2.0 0.00 0.00 0.00 69 1017.9
20210923150323 70 243 0.0 2.0 0.00 0.00 0.00 68 1018.0
20210923150108 69 239 0.0 1.0 0.00 0.00 0.00 71 1017.9
20210923145526 68 239 0.0 2.0 0.00 0.00 0.00 70 1017.8
20210923145022 68 30 0.0 2.0 0.00 0.00 0.00 75 1017.8
20210923144824 68 85 0.0 1.0 0.00 0.00 0.00 72 1017.9
20210923144544 67 85 0.0 2.0 0.00 0.00 0.00 74 1017.7
20210923144025 66 253 0.0 2.0 0.00 0.00 0.00 79 1017.8
20210923143512 65 105 0.0 0.0 0.00 0.00 0.00 81 1017.8
20210923143328 65 105 0.0 0.0 0.00 0.00 0.00 84 1017.9
20210923143049 64 105 0.0 0.0 0.00 0.00 0.00 85 1017.7
20210923142514 63 105 0.0 0.0 0.00 0.00 0.00 87 1017.7
20210923142005 63 105 0.0 0.0 0.00 0.00 0.00 88 1017.7
20210923141832 63 105 0.0 0.0 0.00 0.00 0.00 88 1017.7
20210923141516 62 105 0.0 0.0 0.00 0.00 0.00 90 1017.6
20210923140558 60 105 0.0 0.0 0.00 0.00 0.00 93 1017.8
20210923140013 59 105 0.0 0.0 0.00 0.00 0.00 94 1017.7
20210923135501 59 105 0.0 0.0 0.00 0.00 0.00 94 1017.7
20210923135053 58 105 0.0 0.0 0.00 0.00 0.00 94 1017.6
20210923134814 58 105 0.0 0.0 0.00 0.00 0.00 94 1017.7
20210923134052 57 105 0.0 0.0 0.00 0.00 0.00 94 1017.6
20210923133541 56 105 0.0 0.0 0.00 0.00 0.00 93 1017.5
20210923133319 57 105 0.0 0.0 0.00 0.00 0.00 93 1017.6
20210923133205 56 105 0.0 0.0 0.00 0.00 0.00 93 1017.6
20210923132540 56 105 0.0 0.0 0.00 0.00 0.00 93 1017.6
20210923132032 55 105 0.0 0.0 0.00 0.00 0.00 93 1017.6
20210923131826 56 105 0.0 0.0 0.00 0.00 0.00 93 1017.6
20210923131603 55 105 0.0 0.0 0.00 0.00 0.00 93 1017.5
20210923131028 55 105 0.0 0.0 0.00 0.00 0.00 93 1017.6
20210923130526 54 105 0.0 0.0 0.00 0.00 0.00 93 1017.6
20210923130315 55 105 0.0 0.0 0.00 0.00 0.00 93 1017.6
20210923130056 54 105 0.0 0.0 0.00 0.00 0.00 93 1017.6
20210923125531 54 105 0.0 0.0 0.00 0.00 0.00 93 1017.5
20210923125012 54 105 0.0 0.0 0.00 0.00 0.00 92 1017.5
20210923124815 54 105 0.0 0.0 0.00 0.00 0.00 92 1017.5
20210923124607 54 105 0.0 0.0 0.00 0.00 0.00 92 1017.5
20210923124002 54 105 0.0 0.0 0.00 0.00 0.00 92 1017.5
20210923123554 53 105 0.0 0.0 0.00 0.00 0.00 92 1017.5
20210923123320 54 105 0.0 0.0 0.00 0.00 0.00 92 1017.4
20210923123016 53 105 0.0 0.0 0.00 0.00 0.00 92 1017.3
20210923122054 53 105 0.0 0.0 0.00 0.00 0.00 92 1017.3
20210923121822 54 105 0.0 0.0 0.00 0.00 0.00 92 1017.3
20210923121051 53 105 0.0 0.0 0.00 0.00 0.00 92 1017.2
20210923120551 53 105 0.0 0.0 0.00 0.00 0.00 92 1017.2
20210923120336 54 105 0.0 0.0 0.00 0.00 0.00 92 1017.2
20210923120212 53 105 0.0 0.0 0.00 0.00 0.00 92 1017.2
20210923115542 53 105 0.0 0.0 0.00 0.00 0.00 92 1017.0
20210923115028 53 105 0.0 0.0 0.00 0.00 0.00 92 1017.1
20210923114839 54 105 0.0 0.0 0.00 0.00 0.00 92 1017.2
20210923114538 53 105 0.0 0.0 0.00 0.00 0.00 91 1017.2
20210923114027 53 105 0.0 0.0 0.00 0.00 0.00 92 1017.1
20210923113516 53 105 0.0 0.0 0.00 0.00 0.00 91 1017.1
20210923113319 54 105 0.0 0.0 0.00 0.00 0.00 91 1017.2
20210923113023 54 105 0.0 0.0 0.00 0.00 0.00 91 1017.0
20210923112509 54 105 0.0 0.0 0.00 0.00 0.00 91 1017.0
20210923111818 54 105 0.0 0.0 0.00 0.00 0.00 91 1016.9
20210923111641 54 105 0.0 0.0 0.00 0.00 0.00 91 1016.9
20210923111053 54 105 0.0 0.0 0.00 0.00 0.00 91 1016.9
20210923110546 54 105 0.0 0.0 0.00 0.00 0.00 91 1016.9
20210923110321 54 105 0.0 0.0 0.00 0.00 0.00 91 1017.0
20210923110120 54 105 0.0 0.0 0.00 0.00 0.00 91 1017.0
20210923105539 54 105 0.0 0.0 0.00 0.00 0.00 91 1016.7
20210923105032 54 105 0.0 0.0 0.00 0.00 0.00 91 1016.8
20210923104831 55 105 0.0 0.0 0.00 0.00 0.00 91 1016.8
20210923104553 54 105 0.0 0.0 0.00 0.00 0.00 91 1016.8
20210923104038 54 105 0.0 0.0 0.00 0.00 0.00 91 1016.8
20210923103516 54 105 0.0 0.0 0.00 0.00 0.00 91 1016.8
20210923103316 55 105 0.0 0.0 0.00 0.00 0.00 91 1016.8
20210923103059 54 105 0.0 0.0 0.00 0.00 0.00 91 1016.9
20210923102513 54 105 0.0 0.0 0.00 0.00 0.00 91 1016.8
20210923102001 54 105 0.0 0.0 0.00 0.00 0.00 91 1016.7
20210923101818 55 105 0.0 0.0 0.00 0.00 0.00 91 1016.7
20210923101511 54 105 0.0 0.0 0.00 0.00 0.00 91 1016.7
20210923100551 54 105 0.0 0.0 0.00 0.00 0.00 91 1016.8
20210923100322 55 105 0.0 0.0 0.00 0.00 0.00 91 1016.7
20210923100050 55 105 0.0 0.0 0.00 0.00 0.00 91 1016.7
20210923095601 55 105 0.0 0.0 0.00 0.00 0.00 91 1016.7
20210923095053 55 105 0.0 0.0 0.00 0.00 0.00 91 1016.9
20210923094823 55 105 0.0 0.0 0.00 0.00 0.00 91 1017.0
20210923094654 55 105 0.0 0.0 0.00 0.00 0.00 90 1016.9
20210923094055 55 105 0.0 0.0 0.00 0.00 0.00 90 1016.9
20210923093537 55 105 0.0 0.0 0.00 0.00 0.00 91 1016.9
20210923093333 55 105 0.0 0.0 0.00 0.00 0.00 91 1017.0
20210923093045 55 105 0.0 0.0 0.00 0.00 0.00 90 1016.9
20210923092536 55 105 0.0 0.0 0.00 0.00 0.00 90 1017.0
20210923092024 55 105 0.0 0.0 0.00 0.00 0.00 90 1016.8
20210923091835 56 105 0.0 0.0 0.00 0.00 0.00 90 1016.9
20210923091541 55 105 0.0 0.0 0.00 0.00 0.00 90 1017.0
20210923091022 55 105 0.0 0.0 0.00 0.00 0.00 90 1017.0
20210923090510 55 105 0.0 0.0 0.00 0.00 0.00 90 1016.9
20210923090315 56 105 0.0 0.0 0.00 0.00 0.00 90 1017.0
20210923090057 55 105 0.0 0.0 0.00 0.00 0.00 90 1016.9
20210923085506 55 105 0.0 0.0 0.00 0.00 0.00 90 1016.9
20210923085059 55 105 0.0 0.0 0.00 0.00 0.00 90 1016.9
20210923084816 56 105 0.0 0.0 0.00 0.00 0.00 90 1017.1
20210923084506 55 105 0.0 0.0 0.00 0.00 0.00 90 1017.1
20210923084136 55 105 0.0 0.0 0.00 0.00 0.00 90 1017.1
20210923083554 55 105 0.0 0.0 0.00 0.00 0.00 90 1017.2
20210923083319 56 105 0.0 0.0 0.00 0.00 0.00 90 1017.3
20210923083108 55 105 0.0 0.0 0.00 0.00 0.00 90 1017.2
20210923082606 55 105 0.0 0.0 0.00 0.00 0.00 90 1017.2
20210923082025 55 105 0.0 0.0 0.00 0.00 0.00 90 1017.0
20210923081830 56 105 0.0 0.0 0.00 0.00 0.00 90 1017.2
20210923081546 55 105 0.0 0.0 0.00 0.00 0.00 90 1017.1
20210923081023 55 105 0.0 0.0 0.00 0.00 0.00 90 1017.3
20210923080513 55 105 0.0 0.0 0.00 0.00 0.00 90 1017.4
20210923080333 56 105 0.0 0.0 0.00 0.00 0.00 89 1017.4
20210923080025 55 105 0.0 0.0 0.00 0.00 0.00 89 1017.3
20210923075533 56 105 0.0 0.0 0.00 0.00 0.00 89 1017.3
20210923074814 56 105 0.0 0.0 0.00 0.00 0.00 89 1017.4
20210923074511 56 105 0.0 0.0 0.00 0.00 0.00 89 1017.4
20210923073552 56 105 0.0 0.0 0.00 0.00 0.00 89 1017.3
20210923073323 56 105 0.0 0.0 0.00 0.00 0.00 89 1017.4
20210923073023 56 105 0.0 0.0 0.00 0.00 0.00 89 1017.3
20210923072559 56 105 0.0 0.0 0.00 0.00 0.00 89 1017.3
20210923072050 56 105 0.0 0.0 0.00 0.00 0.00 89 1017.3
20210923071825 57 105 0.0 0.0 0.00 0.00 0.00 89 1017.3
20210923071508 56 105 0.0 0.0 0.00 0.00 0.00 89 1017.3
20210923071058 56 105 0.0 0.0 0.00 0.00 0.00 89 1017.3
20210923070547 56 105 0.0 0.0 0.00 0.00 0.00 88 1017.3
20210923070330 57 105 0.0 0.0 0.00 0.00 0.00 88 1017.4
20210923070134 56 105 0.0 0.0 0.00 0.00 0.00 88 1017.4
20210923065544 56 105 0.0 0.0 0.00 0.00 0.00 88 1017.3
20210923065034 56 105 0.0 0.0 0.00 0.00 0.00 88 1017.3
20210923064836 57 105 0.0 0.0 0.00 0.00 0.00 88 1017.4
20210923064555 57 105 0.0 0.0 0.00 0.00 0.00 88 1017.3
20210923064036 57 105 0.0 0.0 0.00 0.00 0.00 88 1017.2
20210923063534 57 105 0.0 0.0 0.00 0.00 0.00 88 1017.3
20210923063320 57 105 0.0 0.0 0.00 0.00 0.00 88 1017.4
20210923063052 57 105 0.0 0.0 0.00 0.00 0.00 88 1017.3
20210923062520 57 105 0.0 0.0 0.00 0.00 0.00 87 1017.4
20210923062010 57 105 0.0 0.0 0.00 0.00 0.00 88 1017.3
20210923061822 58 105 0.0 0.0 0.00 0.00 0.00 88 1017.4
20210923061609 57 105 0.0 0.0 0.00 0.00 0.00 88 1017.3
20210923061019 57 105 0.0 0.0 0.00 0.00 0.00 88 1017.3
20210923060512 57 105 0.0 0.0 0.00 0.00 0.00 87 1017.3
20210923060326 58 105 0.0 0.0 0.00 0.00 0.00 87 1017.4
20210923060049 57 105 0.0 0.0 0.00 0.00 0.00 87 1017.4
20210923055507 58 105 0.0 0.0 0.00 0.00 0.00 87 1017.5
20210923055059 58 105 0.0 0.0 0.00 0.00 0.00 87 1017.6
20210923054827 58 105 0.0 0.0 0.00 0.00 0.00 87 1017.7
20210923054506 58 105 0.0 0.0 0.00 0.00 0.00 86 1017.6
20210923054057 58 105 0.0 0.0 0.00 0.00 0.00 86 1017.6
20210923053559 58 105 0.0 0.0 0.00 0.00 0.00 86 1017.6
20210923053328 59 105 0.0 0.0 0.00 0.00 0.00 86 1017.8
20210923053143 58 105 0.0 0.0 0.00 0.00 0.00 86 1017.7
20210923052544 58 105 0.0 0.0 0.00 0.00 0.00 86 1017.6
20210923052048 58 105 0.0 0.0 0.00 0.00 0.00 86 1017.5
20210923051837 59 105 0.0 0.0 0.00 0.00 0.00 85 1017.6
20210923051601 59 105 0.0 0.0 0.00 0.00 0.00 85 1017.5
20210923051029 59 105 0.0 0.0 0.00 0.00 0.00 85 1017.5
20210923050516 59 105 0.0 0.0 0.00 0.00 0.00 85 1017.7
20210923050313 59 105 0.0 0.0 0.00 0.00 0.00 85 1017.8
20210923050028 59 105 0.0 0.0 0.00 0.00 0.00 85 1017.8
20210923045513 59 105 0.0 0.0 0.00 0.00 0.00 85 1017.8
20210923045003 59 105 0.0 0.0 0.00 0.00 0.00 85 1017.7
20210923044820 59 105 0.0 0.0 0.00 0.00 0.00 85 1017.7
20210923044513 59 104 0.0 0.0 0.00 0.00 0.00 84 1017.6
20210923044002 59 104 0.0 0.0 0.00 0.00 0.00 84 1017.6
20210923043627 59 104 0.0 0.0 0.00 0.00 0.00 84 1017.6
20210923043321 60 104 0.0 0.0 0.00 0.00 0.00 84 1017.7
20210923042600 59 104 0.0 1.0 0.00 0.00 0.00 83 1017.5
20210923042041 60 110 0.0 1.0 0.00 0.00 0.00 83 1017.5
20210923041824 60 211 0.0 0.0 0.00 0.00 0.00 83 1017.6
20210923041644 60 211 0.0 0.0 0.00 0.00 0.00 83 1017.6
20210923041043 60 211 0.0 0.0 0.00 0.00 0.00 83 1017.5
20210923040532 60 211 0.0 0.0 0.00 0.00 0.00 82 1017.4
20210923040335 61 211 0.0 0.0 0.00 0.00 0.00 82 1017.5
20210923040155 60 211 0.0 0.0 0.00 0.00 0.00 82 1017.3
20210923035543 60 211 0.0 0.0 0.00 0.00 0.00 82 1017.3
20210923035019 60 211 0.0 0.0 0.00 0.00 0.00 81 1017.3
20210923034818 61 211 0.0 0.0 0.00 0.00 0.00 81 1017.3
20210923034547 61 211 0.0 0.0 0.00 0.00 0.00 81 1017.3
20210923034018 61 211 0.0 0.0 0.00 0.00 0.00 80 1017.4
20210923033511 61 211 0.0 0.0 0.00 0.00 0.00 80 1017.5
20210923033320 62 211 0.0 0.0 0.00 0.00 0.00 80 1017.6
20210923033027 61 211 0.0 0.0 0.00 0.00 0.00 80 1017.5
20210923032516 61 211 0.0 0.0 0.00 0.00 0.00 79 1017.3
20210923032007 62 211 0.0 0.0 0.00 0.00 0.00 79 1017.3
20210923031823 62 211 0.0 0.0 0.00 0.00 0.00 78 1017.4
20210923031608 62 211 0.0 0.0 0.00 0.00 0.00 78 1017.3
20210923031011 62 211 0.0 0.0 0.00 0.00 0.00 78 1017.5
20210923030321 63 211 0.0 0.0 0.00 0.00 0.00 78 1017.5
20210923030044 62 211 0.0 0.0 0.00 0.00 0.00 77 1017.3
20210923025511 63 211 0.0 0.0 0.00 0.00 0.00 77 1017.2
20210923025059 63 211 0.0 0.0 0.00 0.00 0.00 77 1017.2
20210923024823 63 211 0.0 0.0 0.00 0.00 0.00 76 1017.3
20210923024538 63 211 0.0 0.0 0.00 0.00 0.00 76 1017.2
20210923024006 63 211 0.0 0.0 0.00 0.00 0.00 74 1017.2
20210923023610 63 211 0.0 0.0 0.00 0.00 0.00 75 1017.2
20210923023326 64 211 0.0 0.0 0.00 0.00 0.00 75 1017.1
20210923023010 64 211 0.0 0.0 0.00 0.00 0.00 73 1017.1
20210923022640 64 211 0.0 0.0 0.00 0.00 0.00 73 1017.1
20210923022047 64 211 0.0 0.0 0.00 0.00 0.00 74 1017.1
20210923021828 65 211 0.0 0.0 0.00 0.00 0.00 74 1017.2
20210923021701 64 211 0.0 0.0 0.00 0.00 0.00 74 1017.1
20210923021054 64 211 0.0 0.0 0.00 0.00 0.00 72 1017.0
20210923020539 65 211 0.0 0.0 0.00 0.00 0.00 72 1016.9
20210923020317 65 211 0.0 0.0 0.00 0.00 0.00 72 1016.9
20210923020140 65 211 0.0 0.0 0.00 0.00 0.00 74 1016.8
20210923015534 65 211 0.0 0.0 0.00 0.00 0.00 72 1016.8
20210923015024 65 211 0.0 0.0 0.00 0.00 0.00 69 1016.8
20210923014826 66 211 0.0 0.0 0.00 0.00 0.00 68 1016.9
20210923014633 65 211 0.0 0.0 0.00 0.00 0.00 68 1016.8
20210923014035 66 211 0.0 0.0 0.00 0.00 0.00 66 1016.6
20210923013533 66 211 0.0 0.0 0.00 0.00 0.00 65 1016.6
20210923013331 67 211 0.0 0.0 0.00 0.00 0.00 65 1016.6
20210923013046 66 211 0.0 0.0 0.00 0.00 0.00 64 1016.5
20210923012522 67 211 0.0 0.0 0.00 0.00 0.00 62 1016.5
20210923012012 67 211 0.0 0.0 0.00 0.00 0.00 61 1016.5
20210923011833 68 211 0.0 0.0 0.00 0.00 0.00 59 1016.6
20210923011546 67 211 0.0 0.0 0.00 0.00 0.00 59 1016.5
20210923011008 68 211 0.0 0.0 0.00 0.00 0.00 60 1016.3
20210923010317 69 211 0.0 0.0 0.00 0.00 0.00 62 1016.3
20210923010029 69 211 0.0 0.0 0.00 0.00 0.00 58 1016.1
20210923005607 69 211 0.0 0.0 0.00 0.00 0.00 60 1016.1
20210923005048 70 211 0.0 0.0 0.00 0.00 0.00 56 1016.2
20210923004819 70 211 0.0 0.0 0.00 0.00 0.00 56 1016.2
20210923004658 70 211 0.0 0.0 0.00 0.00 0.00 54 1016.1
20210923004102 71 211 0.0 0.0 0.00 0.00 0.00 52 1016.2
20210923003537 71 211 0.0 0.0 0.00 0.00 0.00 51 1016.2
20210923003322 72 211 0.0 0.0 0.00 0.00 0.00 50 1016.3
20210923003107 72 211 0.0 0.0 0.00 0.00 0.00 50 1016.2
20210923002535 72 211 0.0 0.0 0.00 0.00 0.00 50 1016.2
20210923002025 73 211 0.0 0.0 0.00 0.00 0.00 53 1016.2
20210923001831 74 211 0.0 0.0 0.00 0.00 0.00 55 1016.2
20210923001549 74 211 0.0 0.0 0.00 0.00 0.00 51 1016.1
20210923001024 74 211 0.0 0.0 0.00 0.00 0.00 48 1016.2
20210923000513 75 211 0.0 0.0 0.00 0.00 0.00 51 1016.1
20210923000332 76 211 0.0 0.0 0.00 0.00 0.00 49 1016.0
20210923000028 76 211 0.0 0.0 0.00 0.00 0.00 49 1015.9
20210922235517 76 211 0.0 1.0 0.00 0.00 0.00 44 1015.9
20210922234833 77 240 0.0 2.0 0.00 0.00 0.00 43 1016.1
20210922234516 77 240 0.0 2.0 0.00 0.00 0.00 40 1015.9
20210922234107 77 240 0.0 2.0 0.00 0.00 0.00 40 1015.9
20210922233558 78 92 0.0 1.0 0.00 0.00 0.00 39 1016.0
20210922233318 79 90 0.0 2.0 0.00 0.00 0.00 41 1016.0
20210922233204 78 142 0.0 2.0 0.00 0.00 0.00 40 1015.9
20210922232549 79 353 0.0 2.0 0.00 0.00 0.00 41 1015.9
20210922232104 79 266 0.0 2.0 0.00 0.00 0.00 36 1016.0
20210922231833 80 323 0.0 2.0 0.00 0.00 0.00 38 1016.1
20210922231608 79 359 0.0 2.0 0.00 0.00 0.00 39 1015.9
20210922231036 79 125 0.0 1.0 0.00 0.00 0.00 38 1016.0
20210922230525 80 281 0.0 2.0 0.00 0.00 0.00 38 1015.8
20210922230334 81 282 0.0 2.0 0.00 0.00 0.00 35 1016.0
20210922230043 80 325 0.0 2.0 0.00 0.00 0.00 35 1016.0
20210922225521 80 49 0.0 2.0 0.00 0.00 0.00 37 1016.0
20210922225010 80 96 0.0 3.0 0.00 0.00 0.00 38 1016.0
20210922224813 81 86 1.0 3.0 0.00 0.00 0.00 38 1016.1
20210922224535 80 95 0.0 3.0 0.00 0.00 0.00 35 1016.1
20210922224018 81 134 0.0 2.0 0.00 0.00 0.00 39 1016.2
20210922223318 81 105 1.0 2.0 0.00 0.00 0.00 37 1016.3
20210922223027 81 336 0.0 3.0 0.00 0.00 0.00 39 1016.2
20210922222600 82 9 0.0 3.0 0.00 0.00 0.00 37 1016.2
20210922222056 82 162 0.0 5.0 0.00 0.00 0.00 34 1016.3
20210922221820 82 51 1.0 5.0 0.00 0.00 0.00 34 1016.4
20210922221507 81 225 1.0 5.0 0.00 0.00 0.00 33 1016.4
20210922221059 81 309 0.0 3.0 0.00 0.00 0.00 34 1016.4
20210922220548 81 340 0.0 2.0 0.00 0.00 0.00 37 1016.4
20210922220325 82 96 0.0 4.0 0.00 0.00 0.00 41 1016.4
20210922220155 81 96 0.0 4.0 0.00 0.00 0.00 38 1016.4
20210922215549 81 225 1.0 4.0 0.00 0.00 0.00 35 1016.3
20210922215049 82 116 0.0 3.0 0.00 0.00 0.00 38 1016.3
20210922214835 82 70 0.0 3.0 0.00 0.00 0.00 34 1016.4
20210922214613 82 143 0.0 3.0 0.00 0.00 0.00 35 1016.4
20210922214036 82 77 0.0 3.0 0.00 0.00 0.00 36 1016.5
20210922213526 82 271 0.0 6.0 0.00 0.00 0.00 35 1016.6
20210922213338 82 89 0.0 6.0 0.00 0.00 0.00 36 1016.6
20210922213124 82 79 1.0 6.0 0.00 0.00 0.00 39 1016.6
20210922212524 83 63 1.0 4.0 0.00 0.00 0.00 36 1016.7
20210922212014 84 230 0.0 2.0 0.00 0.00 0.00 33 1016.8
20210922211821 84 310 1.0 2.0 0.00 0.00 0.00 34 1016.9
20210922211541 84 291 0.0 2.0 0.00 0.00 0.00 35 1016.9
20210922211022 84 247 0.0 2.0 0.00 0.00 0.00 32 1017.0
20210922210518 84 284 0.0 7.0 0.00 0.00 0.00 36 1016.9
20210922210326 84 312 0.0 7.0 0.00 0.00 0.00 33 1016.9
20210922210114 84 261 2.0 7.0 0.00 0.00 0.00 32 1017.0
20210922205534 84 278 0.0 3.0 0.00 0.00 0.00 36 1017.0
20210922205001 84 262 0.0 4.0 0.00 0.00 0.00 35 1017.1
20210922204813 84 109 1.0 4.0 0.00 0.00 0.00 34 1017.1
20210922204511 84 283 0.0 4.0 0.00 0.00 0.00 33 1017.1
20210922203602 84 82 0.0 3.0 0.00 0.00 0.00 37 1017.2
20210922203318 84 333 0.0 3.0 0.00 0.00 0.00 35 1017.3
20210922203219 84 88 0.0 3.0 0.00 0.00 0.00 39 1017.3
20210922202550 84 103 1.0 3.0 0.00 0.00 0.00 38 1017.4
20210922202044 83 278 0.0 5.0 0.00 0.00 0.00 38 1017.6
20210922201818 83 290 1.0 5.0 0.00 0.00 0.00 37 1017.7
20210922201612 83 239 0.0 5.0 0.00 0.00 0.00 37 1017.6
20210922201037 83 91 0.0 4.0 0.00 0.00 0.00 37 1017.7
20210922200528 82 322 0.0 4.0 0.00 0.00 0.00 36 1018.1
20210922200328 82 319 2.0 4.0 0.00 0.00 0.00 37 1018.1
20210922200118 82 301 0.0 3.0 0.00 0.00 0.00 38 1018.1
20210922195536 82 79 0.0 4.0 0.00 0.00 0.00 39 1018.2
20210922195021 82 78 0.0 3.0 0.00 0.00 0.00 39 1018.4
20210922194830 82 347 1.0 3.0 0.00 0.00 0.00 38 1018.5
20210922194623 82 65 0.0 4.0 0.00 0.00 0.00 37 1018.5
20210922194016 82 53 1.0 4.0 0.00 0.00 0.00 35 1018.5
20210922193504 82 195 1.0 3.0 0.00 0.00 0.00 37 1018.7
20210922193312 82 357 1.0 4.0 0.00 0.00 0.00 39 1018.7
20210922193019 81 345 0.0 4.0 0.00 0.00 0.00 36 1018.7
20210922192502 82 41 1.0 4.0 0.00 0.00 0.00 38 1018.8
20210922192053 82 68 0.0 6.0 0.00 0.00 0.00 39 1018.8
20210922191814 82 292 2.0 6.0 0.00 0.00 0.00 38 1018.9
20210922191052 82 288 0.0 5.0 0.00 0.00 0.00 39 1019.0
20210922190546 81 274 1.0 5.0 0.00 0.00 0.00 37 1019.2
20210922190319 82 82 1.0 5.0 0.00 0.00 0.00 37 1019.3
20210922190100 82 126 2.0 5.0 0.00 0.00 0.00 35 1019.2
20210922185541 82 346 1.0 5.0 0.00 0.00 0.00 36 1019.3
20210922185032 81 97 0.0 4.0 0.00 0.00 0.00 41 1019.3
20210922184831 82 83 1.0 5.0 0.00 0.00 0.00 39 1019.4
20210922184549 81 56 0.0 5.0 0.00 0.00 0.00 39 1019.5
20210922184038 81 51 1.0 9.0 0.00 0.00 0.00 39 1019.6
20210922183519 81 48 2.0 9.0 0.00 0.00 0.00 39 1019.8
20210922183332 81 48 1.0 3.0 0.00 0.00 0.00 39 1019.9
20210922183045 81 355 0.0 4.0 0.00 0.00 0.00 40 1020.0
20210922182525 80 40 1.0 4.0 0.00 0.00 0.00 43 1020.0